Location: M�nchen
(48.1404°N, 11.6043°E)
Time: 14:34:34
(UTC+01:00)

ISS - Pass Details

Date: 06 January 2018
Orbit: 402 x 406 km, 51.6° (Epoch: 16 January)

Event Time Altitude Azimuth Distance (km) Brightness Sun altitude
Exits shadow 06:48:15 20° 301° (WNW) 1,002 -2.5 -12.0°
Maximum altitude 06:50:12 46° 7° (N) 559 -3.3 -11.7°
Drops below altitude 10° 06:53:24 10° 83° (E) 1,468 0.0 -11.2°
Sets 06:55:32 0° 89° (E) 2,328 1.4 -10.8°
